VLLN

Details ICAO VLLN (LXG)
Name Luang Namtha
Region Laos
Timezone Asia/Vientiane (UTC+7.0)
Plans Departing 0
Arriving 1
Stats Elevation 1,968 ft / 600 m (AMSL)
Location 21.034444° 101.470000°
Runways 1
Magnetic Variation 1.002° W
Sunrise 2018-05-26 22:34:26 UTC / 2018-05-27 05:34:26 Local
Sunset 2018-05-27 11:50:56 UTC / 2018-05-27 18:50:56 Local
Advertisement - Login to hide

Runways

ID Width Length Bearing (true) Bearing (mag) Surface Threshold Offset Overrun Length
18 164 ft / 50 m 4,460 ft / 1,360 m 180.00° 181.00° Concrete 0 ft / 0 m 0 ft / 0 m
36 164 ft / 50 m 4,460 ft / 1,360 m 0.00° 1.00° Concrete 0 ft / 0 m 0 ft / 0 m

Map

Weather


0- 5 10 15 20 25 30 35+ Temperature / ° C

Clouds and Precipitation
Forecast for 2018-05-27 00:00 UTC. Updated 2 hours ago

Ground ~20,000 ft ~40,000 ft Winds

METAR

VLLN 270100Z 22002KT 9999 SCT020 SCT100 25/23 Q1012 NOSIG

TAF

TAF VLLN 262300Z 2700/2724 32004KT 7000 SCT020 SCT100 TEMPO 2700/2703 4000 BR SCT020 BKN100
Warning: Do not use this data for real-world aviation or navigation. No guarantee of current accuracy is given.